Zurück zum Katalog

STARLINK-4102

AktivKommunikationVLEO
NORAD 53143·PAYLOAD·🇺🇸 United States

Gestartet Jul 17, 2022 von Cape Canaveral Space Force Station

Loading…

Nächste Überflüge (nächste 24 Stunden)

TLE

AktuellSource: CelesTrak SupGP

Epoche: Sep 14, 2026, 14:00 UTC

1 53143C 22083M   26257.58381944  .00251550  00000+0  63519-2 0  2575
2 53143  53.1610  37.6714 0000966  75.0392 146.4518 15.39128839    18

Verfolge STARLINK-4102 in Echtzeit mit AllMySat

Download on the App Store